Location: Ab? ar R?sh Ba?r?
(24.1861°N, 32.8847°E)
Time: 10:35:12
(UTC+00:00)

SL-16 R/B - Pass Details

Date: 24 October 2021
Orbit: 842 x 846 km, 71.0° (Epoch: 04 December)

Event Time Altitude Azimuth Distance (km) Brightness Sun altitude
Rises 16:04:03 0° 222° (SW) 3,385 6.2 -12.0°
Reaches altitude 10° 16:06:47 10° 233° (SW) 2,453 5.6 -12.6°
Maximum altitude 16:11:39 30° 293° (WNW) 1,467 4.1 -13.7°
Drops below altitude 10° 16:16:34 10° 353° (N) 2,462 4.6 -14.8°
Sets 16:19:19 0° 4° (N) 3,400 5.2 -15.4°
